Regional Weather Roundup
Issued by NWS

Home | Current Version | Previous Version | Text Only | Print | Product List | Glossary On
Versions: 1 2 3 4 5 6 7 8 9 10 11 12 13 14 15 16 17 18 19 20 21 22 23 24 25 26 27 28 29 30 31 32 33 34 35 36 37 38 39 40 41 42 43 44 45 46 47 48 49 50
000
ASUS43 KLSX 181159
RWRMO

WEATHER SUMMARY FOR MISSOURI
NATIONAL WEATHER SERVICE SPRINGFIELD MO
700 AM CDT THU SEP 18 2014

NOTE: "FAIR" INDICATES FEW OR NO CLOUDS BELOW 12,000 FEET WITH NO
       SIGNIFICANT WEATHER AND/OR OBSTRUCTIONS TO VISIBILITY.
       CURRENT SKY AND/OR WEATHER CONDITIONS ARE NOT AVAILABLE FOR
       CHILLICOTHE AND FARMINGTON.

MOZ001>031-035>038-043-044-053-054-181300-
...NORTHERN AND WESTERN MISSOURI...

CITY           SKY/WX    TMP DP  RH WIND       PRES   REMARKS
KANSAS CTY INT FOG       60  59  96 E9        30.00R VSB 1/2
6HR MIN TEMP:  60; 6HR MAX TEMP:  65;

KANSAS C DTWN  CLOUDY    63  60  90 NE9       29.99R FOG
6HR MIN TEMP:  63; 6HR MAX TEMP:  65;

LEE`S SUMMIT   CLOUDY    61  59  93 E6        30.01R FOG
6HR MIN TEMP:  61; 6HR MAX TEMP:  64;

ST JOSEPH      CLOUDY    60  59  96 MISG      30.01R
6HR MIN TEMP:  59; 6HR MAX TEMP:  65;

KIRKSVILLE     FOG       53  53 100 E3        30.04S VSB 1/4
6HR MIN TEMP:  53; 6HR MAX TEMP:  56;


$$
MOZ066>068-077>081-088>096-101>105-181300-
...SOUTHWEST MISSOURI...

CITY           SKY/WX    TMP DP  RH WIND       PRES   REMARKS
SPRINGFIELD    LGT RAIN  65  63  93 CALM      29.99R
6HR MIN TEMP:  63; 6HR MAX TEMP:  65; 6HR PCP:  0.03;

JOPLIN         TSTM      64  62  93 SW9       30.05R FOG
6HR MIN TEMP:  63; 6HR MAX TEMP:  69; 6HR PCP:  0.66;


$$
MOZ032>034-039>042-045>050-055>058-069>072-181300-
...CENTRAL MISSOURI...

CITY           SKY/WX    TMP DP  RH WIND       PRES   REMARKS
COLUMBIA       FOG       59  59 100 E6          N/A  VSB 3/4
JEFFERSON CITY CLOUDY    61  59  93 E6        30.02R FOG
6HR MIN TEMP:  61; 6HR MAX TEMP:  62;

ROLLA          FOG       58  58 100 E6        30.00R VSB 1/2
6HR MIN TEMP:  58; 6HR MAX TEMP:  61;

SEDALIA        FOG       61  60  97 E5        30.02R VSB 1/2
6HR MIN TEMP:  61; 6HR MAX TEMP:  63;

OSAGE BEACH    CLOUDY    63  61  94 E3        30.01R

$$
MOZ051-052-059>065-181300-
...EAST CENTRAL MISSOURI...

CITY           SKY/WX    TMP DP  RH WIND       PRES   REMARKS
ST LOUIS INTL  CLOUDY    62  55  77 E6        30.03R
6HR MIN TEMP:  61; 6HR MAX TEMP:  63;

SPIRIT OF STL  CLOUDY    61  58  90 CALM      30.01R
6HR MIN TEMP:  60; 6HR MAX TEMP:  61;

ST CHARLES     CLOUDY    60  56  86 E5        30.02R
6HR MIN TEMP:  60; 6HR MAX TEMP:  61;


$$
MOZ072>076-082>087-097>100-106>115-181300-
...SOUTH CENTRAL AND SOUTHEAST MISSOURI...

CITY           SKY/WX    TMP DP  RH WIND       PRES   REMARKS
CAPE GIRARDEAU CLOUDY    60  59  96 SW3       30.00R FOG
6HR MIN TEMP:  54; 6HR MAX TEMP:  60;

FARMINGTON     CLOUDY    61  57  88 CALM      30.03R
6HR MIN TEMP:  59; 6HR MAX TEMP:  61;

POPLAR BLUFF   CLOUDY    60  57  89 NE5       29.97S FOG
6HR MIN TEMP:  59; 6HR MAX TEMP:  62;

WEST PLAINS    FOG       61  59  93 CALM      30.01R VSB 1/2
6HR MIN TEMP:  60; 6HR MAX TEMP:  61;


$$


USA.gov is the U.S. government's official web portal to all federal, state and local government web resources and services.